GOES 13

Last updated on Thu Jul 03 2025 00:02:33 GMT+0000 (Coordinated Universal Time)

1 29155U 06018A 25183.52585770 -.00000155 00000+0 00000+0 0 9995 2 29155 3.6223 80.7255 0060479 267.1158 240.1675 0.98792409 39794
UTC large
Height (km)
Speed (km/s)
/
Latitude / Longitude
Inclination (degrees)
Orbital Period (minutes)
Azimuth
Elevation
Range (km)
Doppler Factor

Next 0 passes for location: London (51.5072 / 0.1276)

Sorry there are no passes over London.